Flag for Finland Weather past 2 weeks in Helsinki, Finland

Now
41 °F

Fog.


Feels Like: 41 °F
Forecast: 33 / 39 °F
Wind: No wind

Location: Helsinki Malmi Airport

Current Time: Oct 20, 2014 at 7:40:51 AM

Latest Report: Oct 20, 2014 at 6:20 AM


Visibility: 0 mi

Pressure: 29.33 "Hg

Humidity: 100%

Dew point: 41 °F

Location of HelsinkiLocation

Historic Weather in Helsinki — Graph

°F

Helsinki temperature yesterday

Maximum temperature yesterday: 50 °F (at 5:50 PM)
Minimum temperature yesterday: 32 °F (at 12:20 AM)
Average temperature yesterday: 44 °F

Past Weeks' High & Low Weather Summary

 TemperatureHumidityPressure
High55 °F (Oct 10, 5:20 AM)100% (Oct 5, 6:20 AM)30.69 "Hg (Oct 5, 6:20 AM)
Low19 °F (Oct 18, 7:50 AM)48% (Oct 17, 2:50 PM)29.33 "Hg (Oct 20, 4:20 AM)
Average44 °F84%30.05 "Hg
* Reported Oct 5 6:20 AM — Oct 20 6:20 AM, Helsinki, Weather by CustomWeather, © 2014

Note: Actual official high and low records may vary slightly from our data, if they occured in-between our weather recording intervals... More about our weather records

Advertising

Helsinki weather history for previous 24 hours

 ConditionsComfort  
Time TempWeatherWind HumidityBarometerVisibility
6:20 AM
Oct 20
41 °FFog.No wind100%29.33 "Hg0 mi
5:50 AM41 °FFog.No wind100%29.33 "Hg0 mi
5:20 AM41 °FFog.No wind100%29.33 "Hg0 mi
4:50 AM41 °FFog.No wind100%29.33 "Hg0 mi
4:20 AM45 °FFog.No wind100%29.33 "Hg0 mi
3:50 AM45 °FFog.No wind100%29.36 "Hg0 mi
3:20 AM45 °FFog.No wind100%29.36 "Hg0 mi
2:50 AM46 °FFog.No wind100%29.36 "Hg0 mi
2:20 AM46 °FFog.No wind100%29.36 "Hg0 mi
1:50 AM48 °FLow clouds.1 mph100%29.39 "Hg0 mi
12:50 AM48 °FFog.No wind100%29.39 "Hg0 mi
12:20 AM48 °FFog.1 mph100%29.39 "Hg0 mi
11:50 PM
Oct 19
48 °FFog.No wind100%29.42 "Hg0 mi
11:20 PM50 °FFog.1 mph100%29.42 "Hg1 mi
10:50 PM50 °FLow clouds.No wind100%29.42 "Hg4 mi
10:20 PM50 °FSprinkles. Fog.1 mph100%29.45 "Hg2 mi
9:50 PM50 °FLight rain. Fog.2 mph100%29.45 "Hg2 mi
9:20 PM50 °FMostly cloudy.3 mph100%29.45 "Hg3 mi
8:50 PM50 °FFog.2 mph100%29.45 "Hg3 mi
8:20 PM50 °FFog.2 mph100%29.45 "Hg2 mi
7:50 PM50 °FFog.2 mph100%29.47 "Hg2 mi
7:20 PM50 °FFog.5 mph100%29.47 "Hg1 mi
6:50 PM50 °FFog.3 mph100%29.47 "Hg1 mi
6:20 PM50 °FFog.3 mph100%29.47 "Hg1 mi
5:50 PM50 °FFog.5 mph94%29.47 "Hg1 mi
5:20 PM48 °FFog.6 mph100%29.47 "Hg1 mi
4:50 PM48 °FFog.6 mph100%29.50 "Hg1 mi
4:20 PM46 °FSprinkles. Fog.6 mph100%29.50 "Hg2 mi
3:50 PM45 °FSprinkles. Fog.7 mph100%29.53 "Hg1 mi
3:20 PM43 °FSprinkles. Fog.9 mph100%29.56 "Hg2 mi
2:50 PM43 °FPartly sunny.9 mph93%29.59 "Hg6 mi
2:20 PM43 °FLight rain. Partly sunny.12 mph93%29.59 "Hg3 mi
1:50 PM41 °FLight rain. Partly sunny.14 mph100%29.62 "Hg3 mi
1:20 PM41 °FRain. Partly sunny.14 mph93%29.65 "HgN/A
12:50 PM41 °FRain. Partly sunny.14 mph93%29.68 "Hg5 mi
12:20 PM41 °FRain. Partly sunny.14 mph100%29.71 "Hg3 mi
11:50 AM41 °FRain. Partly sunny.13 mph93%29.74 "Hg3 mi
11:20 AM43 °FRain. Partly sunny.15 mph93%29.74 "Hg5 mi
10:50 AM43 °FRain. Partly sunny.14 mph87%29.77 "Hg6 mi
10:20 AM43 °FRain. Partly sunny.13 mph87%29.80 "Hg6 mi
9:50 AM41 °FRain. Partly sunny.15 mph93%29.83 "HgN/A
9:20 AM43 °FLight rain. Partly sunny.16 mph87%29.86 "HgN/A
8:50 AM43 °FLight rain. Passing clouds.15 mph87%29.89 "HgN/A
8:20 AM43 °FLight rain. Passing clouds.15 mph87%29.89 "Hg5 mi
7:50 AM43 °FLight rain. Overcast.13 mph93%29.92 "HgN/A
7:20 AM43 °FDrizzle. Overcast.16 mph87%29.95 "HgN/A
Weather by CustomWeather, © 2014

See weather overviewHow to use our weather pages